Regional Weather Roundup
Issued by NWS New Orleans/Baton Rouge, LA

Home | Current Version | Previous Version | Text Only | Print | Product List | Glossary On
Versions: 1 2 3 4 5 6 7 8 9 10 11 12 13 14 15 16 17 18 19 20 21 22 23 24 25 26 27 28 29 30 31 32 33 34 35 36 37 38 39 40 41 42 43 44 45 46 47 48 49 50
714
ASUS44 KLIX 100713
RWRLIX
NEW ORLEANS REGIONAL WEATHER ROUNDUP
NATIONAL WEATHER SERVICE NEW ORLEANS LA
100 AM CST SAT DEC 10 2016

NOTE: "FAIR" INDICATES FEW OR NO CLOUDS BELOW 12,000 FEET WITH NO
      SIGNIFICANT WEATHER AND/OR OBSTRUCTIONS TO VISIBILITY.
      SKY/WX - SKY CONDITION AND SIGNIFICANT WEATHER.
      TMP - AIR TEMPERATURE.     DP    - DEWPOINT TEMPERATURE.
      RH  - RELATIVE HUMIDITY.   PRES  - PRESSURE.
      HI  - HEAT INDEX.          WCI   - WIND CHILL INDEX.

*  THESE STATIONS ARE NOT NWS OR FAA STATIONS AND ARE NOT UNDER
   NWS QUALITY CONTROL.

LAZ038-040-048-061>063-065>067-069-100800-
SOUTHEAST LOUISIANA

CITY           SKY/WX    TMP DP  RH WIND       PRES   REMARKS
N.O. AUDUBON   NOT AVBL
N.O. INTL ARPT CLEAR     43  27  53 NE10      30.51R
N.O. LAKEFRONT CLEAR     44  27  51 NE22      30.52R
N.O. DOWNTOWN*   N/A     42  24  49 N8        30.52S
RESERVE*         N/A     41  25  52 NE7       30.52S
SLIDELL        CLEAR     35  23  61 CALM      30.52R
BATON ROUGE    PTCLDY    34  24  67 NE3       30.52F
BOOTHVILLE     CLEAR     45  34  65 NE12      30.49S
BELLE CHASSE   CLEAR     41  25  53 NE12      30.51R
BOGALUSA*        N/A     33  24  69 NE3       30.55S
GALLIANO*      SUNNY     43  28  54 NE6       30.50S
NEW ROADS*       N/A     32  26  76 N6        30.54S WCI  27
GONZALES*        N/A     37  24  58 CALM      30.52S
HAMMOND*       CLEAR     34  23  64 NE3       30.53R
HOUMA*         CLEAR     38  31  76 NE5       30.51R WCI  34
PORT FOURCHON* SUNNY     48  32  53 NE13G21   30.48S

$$

MSZ070-080>082-100800-
SOUTHERN MISSISSIPPI

CITY           SKY/WX    TMP DP  RH WIND       PRES   REMARKS
MCCOMB         CLEAR     33  21  61 N5        30.52F WCI  29
GULFPORT       CLEAR     36  22  56 N7        30.51S WCI  30
BILOXI         CLEAR     37  23  56 NE12      30.50F WCI  29
PASCAGOULA     CLEAR     34  21  59 N9        30.52R WCI  27

$$

COASTAL OBSERVATIONS
LAKE AND NEARSHORE STATIONS

STATION/POSITION TIME  TEMP    WIND        PRES    WAVE
                       AIR SEA DIR/SP/G            HT/PER
                 (UTC) (F)     (DEG/KT/KT) (MB)    (FT/S)
PASCAGOULA       0648   36     360/  8/ 12 1032.8
WAVELAND YACHT   0642   38 52   40/  9/ 11 1033.2
GRAND ISLE       0648   47 61   60/ 12/ 18 1032.0
SOUTHWEST PASS   0648           30/ 16/ 19   N/A
NEW CANAL        0648   44 55   60/ 19/ 24 1032.0
SHELL BEACH      0648   44 54   40/ 17/ 19 1032.9

OFFSHORE STATIONS

STATION/POSITION TIME  TEMP    WIND        PRES    WAVE
                       AIR SEA DIR/SP/G            HT/PER
                 (UTC) (F)     (DEG/KT/KT) (MB)    (FT/S)
64 S DAUPHIN ISL 0650   54 74   30/ 16/ 19 1031.3    5/ 6

$$





USA.gov is the U.S. government's official web portal to all federal, state and local government web resources and services.